Regional Weather Roundup
Issued by NWS

Home | Current Version | Previous Version | Text Only | Print | Product List | Glossary On
Versions: 1 2 3 4 5 6 7 8 9 10 11 12 13 14 15 16 17 18 19 20 21 22 23 24 25 26 27 28 29 30 31 32 33 34 35 36 37 38 39 40 41 42 43 44 45 46 47 48 49 50
796
ASUS43 KIND 161409
RWRIN

WEATHER ROUNDUP FOR INDIANA
NATIONAL WEATHER SERVICE INDIANAPOLIS IN
1000 AM EDT SUN MAY 16 2021

NOTE: "FAIR" INDICATES FEW OR NO CLOUDS BELOW 12,000 FEET WITH NO
SIGNIFICANT WEATHER AND/OR OBSTRUCTIONS TO VISIBILITY.

* - STATION DOES NOT REPORT WEATHER SUCH AS PRECIPITATION OR FOG.

+ - STATION NOT QUALITY CONTROLLED BY THE NATIONAL WEATHER SERVICE.
    USE DATA WITH CAUTION...ESPECIALLY DEWPOINT AND RELATIVE
    HUMIDITY OBSERVATIONS.

INZ001>003-010>013-019-020-161500-
NORTHWEST INDIANA

CITY           SKY/WX    TMP DP  RH WIND       PRES   REMARKS
GARY /AIRPORT/ MOSUNNY   63  43  48 CALM      30.22F
KNOX *+        SUNNY     63  45  51 E3        30.22S
LA PORTE +     MOSUNNY   59  45  59 S7        30.23F
MICHIGAN CITY+ SUNNY     61  43  51 SW6       30.23S
MONTICELLO +   MOSUNNY   62  46  56 CALM      30.22S
RENSSELAER +   PTSUNNY   61  45  55 CALM      30.22S
VALPARAISO     PTSUNNY   61  48  62 CALM      30.22F

$$

LMZ046-743>745-161500-
SOUTHERN LAKE MICHIGAN

STATION/POSITION TIME  TEMP    WIND        PRES    WAVE
                       AIR SEA DIR/SP/G            HT
                 (UTC) (F)     (DEG/KT/KT) (MB)    (FT)
BURNS HARBOR     1340   62     190/  3/  4 1023.7S
MICHIGAN CITY    1340   61     160/  5/  6 1023.8S

$$

INZ004-005-014>016-021>024-161500-
NORTH CENTRAL INDIANA

CITY           SKY/WX    TMP DP  RH WIND       PRES   REMARKS
ELKHART        MOSUNNY   61  46  59 SE8       30.23F
GOSHEN         CLOUDY    60  47  61 SE8       30.24R
LOGANSPORT +   MOSUNNY   61  46  59 CALM      30.24R
PERU/GRISSOM   MOSUNNY   62  47  58 CALM      30.22F
PLYMOUTH *+    SUNNY     63  45  51 VRB7G13   30.22F
ROCHESTER +    SUNNY     63  45  51 SE6       30.24F
SOUTH BEND     MOSUNNY   63  44  50 SE6       30.23F
WARSAW +       PTSUNNY   59  45  58 E8        30.23F

$$

INZ006>009-017-018-025>027-161500-
NORTHEAST INDIANA

CITY           SKY/WX    TMP DP  RH WIND       PRES   REMARKS
ANGOLA *+      CLOUDY    57  46  67 SE3       30.25R
AUBURN +       PTSUNNY   59  48  67 NE5       30.25R
FORT WAYNE     PTSUNNY   62  44  51 SE6       30.24S
HUNTINGTON +   MOSUNNY   62  44  50 E6        30.23S
KENDALLVILLE + PTSUNNY   59  49  68 E5        30.25S

$$

INZ028-029-035-036-043>045-051>053-161500-
WEST CENTRAL INDIANA

CITY           SKY/WX    TMP DP  RH WIND       PRES   REMARKS
CRAWFORDSVL +  MOSUNNY   62  47  58 CALM      30.23S
GREENCASTLE +  CLOUDY    59  52  77 SE7       30.24S
LAFAYETTE      MOSUNNY   67  47  48 CALM      30.22S
TERRE HAUTE    CLOUDY    60  52  74 SE5       30.22S

$$

INZ030>032-037>040-046>048-054>057-064-065-161500-
CENTRAL INDIANA

CITY           SKY/WX    TMP DP  RH WIND       PRES   REMARKS
COLUMBUS       CLOUDY    59  46  63 CALM      30.25R
FRANKFORT +    MOSUNNY   63  46  55 VRB3      30.23R
GREENWOOD *+   CLOUDY    59  53  80 SE3       30.25S
INDIANAPOLIS   PTSUNNY   59  53  80 SE3       30.23S
-EAGLE CREEK   CLOUDY    58  54  86 E5        30.23R
KOKOMO +       MOSUNNY   64  45  49 W5        30.24S
MARION +       MOSUNNY   61  45  55 W6        30.24S
MT COMFORT *+  CLOUDY    59  55  88 CALM      30.24S
SHELBYVILLE    CLOUDY    61  49  64 E5        30.24R

$$

INZ033-034-041-042-049-050-058-059-161500-
EAST CENTRAL INDIANA

CITY           SKY/WX    TMP DP  RH WIND       PRES   REMARKS
MUNCIE         MOSUNNY   65  45  48 SW7       30.23S
PORTLAND +     FAIR      64  36  34 S9        30.23S
RICHMOND +     PTSUNNY   59  50  72 SW7       30.26R

$$

INZ060-061-067>069-081>083-085>088-161500-
SOUTHWEST INDIANA

CITY           SKY/WX    TMP DP  RH WIND       PRES   REMARKS
EVANSVILLE     CLOUDY    60  51  72 SE9       30.22S
HUNTINGBURG +  CLOUDY    62  52  69 SE10      30.23S
WASHINGTON +   CLOUDY    63  52  67 SE5       30.22S

$$

INZ062-063-066-070>080-084-089>092-161500-
SOUTH CENTRAL AND SOUTHEAST INDIANA

CITY           SKY/WX    TMP DP  RH WIND       PRES   REMARKS
BATESVILLE +   CLOUDY    59  52  77 CALM      30.25S
BLOOMINGTON    CLOUDY    61  49  64 E7        30.23F
JEFFERSONVL +  FAIR      59  56  89 CALM      30.26R
MADISON *+     CLOUDY    59  52  77 CALM      30.27S

$$





USA.gov is the U.S. government's official web portal to all federal, state and local government web resources and services.